User: anonymous   Login
Location: *
(2.5500°S, 65.9667°W)
Time: 12:19:25
(UTC+00:00)
Language:

Cosmos 1726 Rocket - Orbit

View from above orbital plane
View from above orbital plane
View from above satellite
View from above satellite

Ground track
Ground track

The orbit data is extracted from the following two-line orbital elements,

1 16496U 86006B   22020.13267219  .00000192  00000-0  20072-4 0  9990
2 16496  82.5234 236.9432 0017831 292.7971 187.2381 14.84227933946224
Epoch (UTC): 20 January 2022 03:11:02
Eccentricity: 0.0017831
inclination: 82.5234°
perigee height: 603 km
apogee height: 628 km
right ascension of ascending node: 236.9432°
argument of perigee: 292.7971°
revolutions per day: 14.84227933
mean anomaly at epoch: 187.2381°
orbit number at epoch: 94622

The dashed part of the orbit path shows where the satellite is in the earth's shadow,  

DLR